OK1VCF-8 Weather Reports


time (UTC)temp
C
wind
direction
speed
KPH
gust
KPH
rain 1hr
cm
rain 24hr
cm
rain mn
cm
humidity
%
barometer
mb
20260904145419 28 0 0.0 0.0 0.00 0.00 0.00 47 1012.3
20260904144659 28 0 0.0 0.0 0.00 0.00 0.00 47 1012.4
20260904143939 28 0 0.0 0.0 0.00 0.00 0.00 46 1012.6
20260904143220 28 0 0.0 0.0 0.00 0.00 0.00 48 1012.7
20260904142214 28 0 0.0 0.0 0.00 0.00 0.00 48 1013.0
20260904141452 28 0 0.0 0.0 0.00 0.00 0.00 47 1013.2
20260904140730 28 0 0.0 0.0 0.00 0.00 0.00 48 1013.1
20260904140011 28 0 0.0 0.0 0.00 0.00 0.00 48 1013.2
20260904135250 28 0 0.0 0.0 0.00 0.00 0.00 48 1013.5
20260904134530 28 0 0.0 0.0 0.00 0.00 0.00 48 1013.6
20260904133813 28 0 0.0 0.0 0.00 0.00 0.00 48 1013.8
20260904133054 28 0 0.0 0.0 0.00 0.00 0.00 48 1013.7
20260904132335 28 0 0.0 0.0 0.00 0.00 0.00 48 1013.9
20260904131615 28 0 0.0 0.0 0.00 0.00 0.00 47 1014.0
20260904130850 28 0 0.0 0.0 0.00 0.00 0.00 47 1014.2
20260904130122 28 0 0.0 0.0 0.00 0.00 0.00 47 1014.2
20260904125345 27 0 0.0 0.0 0.00 0.00 0.00 48 1014.3
20260904124615 27 0 0.0 0.0 0.00 0.00 0.00 48 1014.4
20260904123845 28 0 0.0 0.0 0.00 0.00 0.00 48 1014.6
20260904122827 27 0 0.0 0.0 0.00 0.00 0.00 48 1014.8
20260904122056 27 0 0.0 0.0 0.00 0.00 0.00 48 1014.9
20260904121325 27 0 0.0 0.0 0.00 0.00 0.00 51 1015.1
20260904120559 27 0 0.0 0.0 0.00 0.00 0.00 51 1015.2
20260904115827 27 0 0.0 0.0 0.00 0.00 0.00 50 1015.2
20260904115054 27 0 0.0 0.0 0.00 0.00 0.00 50 1015.8
20260904114312 27 0 0.0 0.0 0.00 0.00 0.00 50 1015.6
20260904113536 27 0 0.0 0.0 0.00 0.00 0.00 52 1015.9
20260904112808 26 0 0.0 0.0 0.00 0.00 0.00 52 1015.7
20260904112044 27 0 0.0 0.0 0.00 0.00 0.00 51 1015.8
20260904111324 26 0 0.0 0.0 0.00 0.00 0.00 53 1016.1
20260904110604 26 0 0.0 0.0 0.00 0.00 0.00 54 1016.1
20260904105844 26 0 0.0 0.0 0.00 0.00 0.00 54 1016.1
20260904105125 26 0 0.0 0.0 0.00 0.00 0.00 54 1016.2
20260904104408 26 0 0.0 0.0 0.00 0.00 0.00 54 1016.5
20260904103406 25 0 0.0 0.0 0.00 0.00 0.00 54 1016.7
20260904102648 26 0 0.0 0.0 0.00 0.00 0.00 52 1016.7
20260904101929 26 0 0.0 0.0 0.00 0.00 0.00 52 1016.8
20260904101212 27 0 0.0 0.0 0.00 0.00 0.00 50 1016.8
20260904100455 26 0 0.0 0.0 0.00 0.00 0.00 54 1016.9
20260904095736 26 0 0.0 0.0 0.00 0.00 0.00 54 1017.0
20260904095019 26 0 0.0 0.0 0.00 0.00 0.00 54 1017.0
20260904094301 26 0 0.0 0.0 0.00 0.00 0.00 55 1017.0
20260904093542 26 0 0.0 0.0 0.00 0.00 0.00 56 1017.3
20260904092823 25 0 0.0 0.0 0.00 0.00 0.00 56 1017.2
20260904092104 25 0 0.0 0.0 0.00 0.00 0.00 58 1017.3
20260904091345 24 0 0.0 0.0 0.00 0.00 0.00 59 1017.4
20260904090627 25 0 0.0 0.0 0.00 0.00 0.00 56 1017.5
20260904085905 25 0 0.0 0.0 0.00 0.00 0.00 56 1017.6
20260904085147 25 0 0.0 0.0 0.00 0.00 0.00 56 1017.7
20260904084143 24 0 0.0 0.0 0.00 0.00 0.00 56 1018.0
20260904083425 25 0 0.0 0.0 0.00 0.00 0.00 56 1018.0
20260904082707 24 0 0.0 0.0 0.00 0.00 0.00 58 1018.2
20260904081947 24 0 0.0 0.0 0.00 0.00 0.00 58 1018.0
20260904081229 23 0 0.0 0.0 0.00 0.00 0.00 61 1018.0
20260904080509 23 0 0.0 0.0 0.00 0.00 0.00 62 1018.2
20260904075749 22 0 0.0 0.0 0.00 0.00 0.00 65 1018.1
20260904075030 22 0 0.0 0.0 0.00 0.00 0.00 65 1018.2
20260904074312 23 0 0.0 0.0 0.00 0.00 0.00 63 1018.2
20260904073554 22 0 0.0 0.0 0.00 0.00 0.00 66 1017.8
20260904072835 22 0 0.0 0.0 0.00 0.00 0.00 66 1018.0
20260904072115 22 0 0.0 0.0 0.00 0.00 0.00 66 1018.0
20260904071357 21 0 0.0 0.0 0.00 0.00 0.00 68 1018.2
20260904070630 21 0 0.0 0.0 0.00 0.00 0.00 68 1018.4
20260904065904 21 0 0.0 0.0 0.00 0.00 0.00 68 1018.4
20260904064856 20 0 0.0 0.0 0.00 0.00 0.00 70 1018.6
20260904064134 20 0 0.0 0.0 0.00 0.00 0.00 71 1018.4
20260904063410 20 0 0.0 0.0 0.00 0.00 0.00 70 1018.4
20260904062646 20 0 0.0 0.0 0.00 0.00 0.00 70 1018.5
20260904061919 20 0 0.0 0.0 0.00 0.00 0.00 71 1018.4
20260904061154 20 0 0.0 0.0 0.00 0.00 0.00 72 1018.6
20260904060431 18 0 0.0 0.0 0.00 0.00 0.00 74 1018.5
20260904055707 18 0 0.0 0.0 0.00 0.00 0.00 75 1018.6
20260904054944 18 0 0.0 0.0 0.00 0.00 0.00 76 1018.6
20260904054225 18 0 0.0 0.0 0.00 0.00 0.00 76 1018.6
20260904053506 18 0 0.0 0.0 0.00 0.00 0.00 76 1018.8
20260904052748 18 0 0.0 0.0 0.00 0.00 0.00 76 1019.0
20260904052029 18 0 0.0 0.0 0.00 0.00 0.00 77 1019.0
20260904051312 17 0 0.0 0.0 0.00 0.00 0.00 78 1019.0
20260904050554 17 0 0.0 0.0 0.00 0.00 0.00 79 1019.0
20260904045551 17 0 0.0 0.0 0.00 0.00 0.00 80 1019.0
20260904044833 17 0 0.0 0.0 0.00 0.00 0.00 80 1019.0
20260904044116 16 0 0.0 0.0 0.00 0.00 0.00 82 1019.0
20260904043358 16 0 0.0 0.0 0.00 0.00 0.00 82 1019.0
20260904042639 16 0 0.0 0.0 0.00 0.00 0.00 83 1019.0
20260904041921 16 0 0.0 0.0 0.00 0.00 0.00 84 1018.9
20260904041204 16 0 0.0 0.0 0.00 0.00 0.00 85 1018.9
20260904040445 16 0 0.0 0.0 0.00 0.00 0.00 85 1018.8
20260904035727 16 0 0.0 0.0 0.00 0.00 0.00 84 1018.7
20260904032126 16 0 0.0 0.0 0.00 0.00 0.00 82 1019.0
20260904031407 17 0 0.0 0.0 0.00 0.00 0.00 82 1019.2
20260904030404 17 0 0.0 0.0 0.00 0.00 0.00 81 1019.3
20260904025645 17 0 0.0 0.0 0.00 0.00 0.00 82 1019.4
20260904024928 16 0 0.0 0.0 0.00 0.00 0.00 82 1019.4
20260904024212 16 0 0.0 0.0 0.00 0.00 0.00 82 1019.5
20260904023453 16 0 0.0 0.0 0.00 0.00 0.00 82 1019.4
20260904022736 16 0 0.0 0.0 0.00 0.00 0.00 82 1019.4
20260904022020 16 0 0.0 0.0 0.00 0.00 0.00 82 1019.5
20260904021302 17 0 0.0 0.0 0.00 0.00 0.00 80 1019.4
20260904020544 17 0 0.0 0.0 0.00 0.00 0.00 80 1019.4
20260904015827 17 0 0.0 0.0 0.00 0.00 0.00 81 1019.6
20260904015110 17 0 0.0 0.0 0.00 0.00 0.00 81 1019.4
20260904014352 17 0 0.0 0.0 0.00 0.00 0.00 82 1019.4
20260904013635 16 0 0.0 0.0 0.00 0.00 0.00 82 1019.4
20260904012918 16 0 0.0 0.0 0.00 0.00 0.00 82 1019.4
20260904012201 16 0 0.0 0.0 0.00 0.00 0.00 82 1019.6
20260904011200 17 0 0.0 0.0 0.00 0.00 0.00 80 1019.5
20260904010434 17 0 0.0 0.0 0.00 0.00 0.00 80 1019.6
20260904005712 17 0 0.0 0.0 0.00 0.00 0.00 80 1019.8
20260904004949 17 0 0.0 0.0 0.00 0.00 0.00 80 1019.6
20260904004226 17 0 0.0 0.0 0.00 0.00 0.00 80 1019.6
20260904003504 17 0 0.0 0.0 0.00 0.00 0.00 80 1019.5
20260904002743 17 0 0.0 0.0 0.00 0.00 0.00 80 1019.6
20260904002021 17 0 0.0 0.0 0.00 0.00 0.00 80 1019.6
20260904001258 17 0 0.0 0.0 0.00 0.00 0.00 80 1019.8
20260904000528 17 0 0.0 0.0 0.00 0.00 0.00 80 1019.9
20260903235756 17 0 0.0 0.0 0.00 0.00 0.00 80 1019.8
20260903235024 17 0 0.0 0.0 0.00 0.00 0.00 80 1019.8
20260903234252 17 0 0.0 0.0 0.00 0.00 0.00 80 1020.0
20260903233526 17 0 0.0 0.0 0.00 0.00 0.00 80 1020.1
20260903232803 17 0 0.0 0.0 0.00 0.00 0.00 80 1020.0
20260903230327 17 0 0.0 0.0 0.00 0.00 0.00 82 1020.3
20260903225610 17 0 0.0 0.0 0.00 0.00 0.00 82 1020.2
20260903224852 17 0 0.0 0.0 0.00 0.00 0.00 81 1020.4
20260903224135 17 0 0.0 0.0 0.00 0.00 0.00 81 1020.2
20260903223417 16 0 0.0 0.0 0.00 0.00 0.00 82 1020.0
20260903222659 16 0 0.0 0.0 0.00 0.00 0.00 82 1020.0
20260903221940 17 0 0.0 0.0 0.00 0.00 0.00 80 1020.2
20260903221223 17 0 0.0 0.0 0.00 0.00 0.00 80 1020.3
20260903220505 17 0 0.0 0.0 0.00 0.00 0.00 80 1020.1
20260903215745 17 0 0.0 0.0 0.00 0.00 0.00 78 1020.2
20260903215028 17 0 0.0 0.0 0.00 0.00 0.00 78 1020.3
20260903214311 17 0 0.0 0.0 0.00 0.00 0.00 78 1020.4
20260903213554 17 0 0.0 0.0 0.00 0.00 0.00 78 1020.4
20260903212552 17 0 0.0 0.0 0.00 0.00 0.00 78 1020.4
20260903211835 17 0 0.0 0.0 0.00 0.00 0.00 77 1020.4
20260903211117 17 0 0.0 0.0 0.00 0.00 0.00 78 1020.6
20260903210359 17 0 0.0 0.0 0.00 0.00 0.00 78 1020.6
20260903205640 17 0 0.0 0.0 0.00 0.00 0.00 78 1020.6
20260903204922 17 0 0.0 0.0 0.00 0.00 0.00 78 1020.8
20260903204204 17 0 0.0 0.0 0.00 0.00 0.00 78 1020.9
20260903203446 17 0 0.0 0.0 0.00 0.00 0.00 78 1020.8
20260903202728 17 0 0.0 0.0 0.00 0.00 0.00 78 1020.6
20260903202011 17 0 0.0 0.0 0.00 0.00 0.00 77 1020.8
20260903201253 17 0 0.0 0.0 0.00 0.00 0.00 76 1020.6
20260903200534 17 0 0.0 0.0 0.00 0.00 0.00 76 1020.6
20260903195815 17 0 0.0 0.0 0.00 0.00 0.00 76 1020.6
20260903195058 17 0 0.0 0.0 0.00 0.00 0.00 76 1020.6
20260903194341 17 0 0.0 0.0 0.00 0.00 0.00 75 1020.6
20260903193339 18 0 0.0 0.0 0.00 0.00 0.00 74 1020.7
20260903192621 18 0 0.0 0.0 0.00 0.00 0.00 74 1020.8
20260903191903 17 0 0.0 0.0 0.00 0.00 0.00 74 1020.8
20260903191145 18 0 0.0 0.0 0.00 0.00 0.00 74 1020.8
20260903190427 18 0 0.0 0.0 0.00 0.00 0.00 72 1021.0
20260903185709 18 0 0.0 0.0 0.00 0.00 0.00 73 1020.9
20260903184951 18 0 0.0 0.0 0.00 0.00 0.00 72 1020.9
20260903184233 18 0 0.0 0.0 0.00 0.00 0.00 72 1021.0
20260903183516 18 0 0.0 0.0 0.00 0.00 0.00 70 1021.0
20260903182759 18 0 0.0 0.0 0.00 0.00 0.00 70 1021.0
20260903182041 18 0 0.0 0.0 0.00 0.00 0.00 70 1021.0
20260903181323 18 0 0.0 0.0 0.00 0.00 0.00 68 1020.9
20260903180605 19 0 0.0 0.0 0.00 0.00 0.00 68 1020.8
20260903175845 19 0 0.0 0.0 0.00 0.00 0.00 66 1020.8
20260903175127 20 0 0.0 0.0 0.00 0.00 0.00 66 1020.9
20260903174126 20 0 0.0 0.0 0.00 0.00 0.00 64 1020.6
20260903173409 20 0 0.0 0.0 0.00 0.00 0.00 64 1020.6
20260903172651 20 0 0.0 0.0 0.00 0.00 0.00 62 1020.6
20260903171931 20 0 0.0 0.0 0.00 0.00 0.00 62 1020.5
20260903171213 20 0 0.0 0.0 0.00 0.00 0.00 60 1020.5
20260903170456 21 0 0.0 0.0 0.00 0.00 0.00 60 1020.5
20260903165738 21 0 0.0 0.0 0.00 0.00 0.00 58 1020.6
20260903165020 21 0 0.0 0.0 0.00 0.00 0.00 58 1020.3
20260903164304 21 0 0.0 0.0 0.00 0.00 0.00 56 1020.3
20260903163545 22 0 0.0 0.0 0.00 0.00 0.00 56 1020.1
20260903162827 22 0 0.0 0.0 0.00 0.00 0.00 54 1020.2
20260903162109 22 0 0.0 0.0 0.00 0.00 0.00 53 1019.9
20260903161350 22 0 0.0 0.0 0.00 0.00 0.00 52 1020.1
20260903160633 22 0 0.0 0.0 0.00 0.00 0.00 52 1019.9
20260903155914 22 0 0.0 0.0 0.00 0.00 0.00 50 1019.8
20260903154912 22 0 0.0 0.0 0.00 0.00 0.00 50 1019.8
20260903154156 23 0 0.0 0.0 0.00 0.00 0.00 50 1019.8
20260903153438 23 0 0.0 0.0 0.00 0.00 0.00 49 1019.8
20260903152720 23 0 0.0 0.0 0.00 0.00 0.00 48 1019.7
20260903152003 23 0 0.0 0.0 0.00 0.00 0.00 46 1019.8
20260903151245 24 0 0.0 0.0 0.00 0.00 0.00 46 1019.8
20260903150527 24 0 0.0 0.0 0.00 0.00 0.00 46 1019.8
20260903145811 24 0 0.0 0.0 0.00 0.00 0.00 46 1020.0